Satellite: NOAA-11
Catalog number: 19531
Epoch time:      10181.32251370
Element set:    0128
Inclination:      098.7704 deg
RA of node:       270.1243 deg
Eccentricity:    0.0012241
Arg of perigee:   108.2946 deg
Mean anomaly:     251.9582 deg
Mean motion:   14.14928071 rev/day
Decay rate:      -1.80e-06 rev/day^2
Epoch rev:           12299
Checksum:              272

Satellite: NOAA-12
Catalog number: 21263
Epoch time:      10181.82635799
Element set:    0616
Inclination:      098.7642 deg
RA of node:       194.9828 deg
Eccentricity:    0.0013175
Arg of perigee:   124.0041 deg
Mean anomaly:     236.2384 deg
Mean motion:   14.25641604 rev/day
Decay rate:        6.5e-07 rev/day^2
Epoch rev:           99434
Checksum:              308

Satellite: MET-3/5
Catalog number: 21655
Epoch time:      10181.70265413
Element set:     850
Inclination:      082.5591 deg
RA of node:       299.0856 deg
Eccentricity:    0.0012543
Arg of perigee:   319.7892 deg
Mean anomaly:     040.2287 deg
Mean motion:   13.17020882 rev/day
Decay rate:        5.1e-07 rev/day^2
Epoch rev:           90745
Checksum:              299

Satellite: MET-2/21
Catalog number: 22782
Epoch time:      10182.53730931
Element set:     817
Inclination:      082.5468 deg
RA of node:       241.0568 deg
Eccentricity:    0.0022552
Arg of perigee:   006.9608 deg
Mean anomaly:     353.1865 deg
Mean motion:   13.83645476 rev/day
Decay rate:        4.0e-08 rev/day^2
Epoch rev:           85006
Checksum:              302

Satellite: OKEAN-4
Catalog number: 23317
Epoch time:      10181.68277031
Element set:    0272
Inclination:      082.5410 deg
RA of node:       341.2596 deg
Eccentricity:    0.0021528
Arg of perigee:   193.2978 deg
Mean anomaly:     166.7695 deg
Mean motion:   14.82830692 rev/day
Decay rate:       2.43e-06 rev/day^2
Epoch rev:           84845
Checksum:              314

Satellite: NOAA-14
Catalog number: 23455
Epoch time:      10181.80090241
Element set:    0108
Inclination:      098.8787 deg
RA of node:       262.4503 deg
Eccentricity:    0.0009010
Arg of perigee:   192.2069 deg
Mean anomaly:     167.8874 deg
Mean motion:   14.13788742 rev/day
Decay rate:       -6.0e-08 rev/day^2
Epoch rev:           79942
Checksum:              312

Satellite: NOAA-15
Catalog number: 25338
Epoch time:      10181.56661767
Element set:    0429
Inclination:      098.6188 deg
RA of node:       168.2506 deg
Eccentricity:    0.0011353
Arg of perigee:   040.6947 deg
Mean anomaly:     319.5084 deg
Mean motion:   14.24837581 rev/day
Decay rate:       1.77e-06 rev/day^2
Epoch rev:           63065
Checksum:              326

Satellite: RESURS
Catalog number: 25394
Epoch time:      10181.62602865
Element set:    0543
Inclination:      098.3043 deg
RA of node:       198.9741 deg
Eccentricity:    0.0001382
Arg of perigee:   139.9351 deg
Mean anomaly:     220.1926 deg
Mean motion:   14.24204808 rev/day
Decay rate:        3.4e-07 rev/day^2
Epoch rev:           62226
Checksum:              282

Satellite: FENGYUN1
Catalog number: 25730
Epoch time:      10181.45020423
Element set:    0078
Inclination:      098.7856 deg
RA of node:       146.0590 deg
Eccentricity:    0.0020706
Arg of perigee:   231.5343 deg
Mean anomaly:     128.4021 deg
Mean motion:   14.08187787 rev/day
Decay rate:       -9.0e-08 rev/day^2
Epoch rev:           57355
Checksum:              283

Satellite: OKEAN-0
Catalog number: 25860
Epoch time:      10182.47147553
Element set:      34
Inclination:      097.8324 deg
RA of node:       154.6837 deg
Eccentricity:    0.0001786
Arg of perigee:   061.6194 deg
Mean anomaly:     298.5188 deg
Mean motion:   14.73646567 rev/day
Decay rate:        2.1e-07 rev/day^2
Epoch rev:           58900
Checksum:              318

Satellite: NOAA-16
Catalog number: 26536
Epoch time:      10181.54280210
Element set:    0906
Inclination:      099.1693 deg
RA of node:       199.3259 deg
Eccentricity:    0.0009728
Arg of perigee:   302.6359 deg
Mean anomaly:     057.3913 deg
Mean motion:   14.12565154 rev/day
Decay rate:        9.3e-07 rev/day^2
Epoch rev:           50371
Checksum:              307

Satellite: NOAA-17
Catalog number: 27453
Epoch time:      10181.55570065
Element set:    0905
Inclination:      098.4300 deg
RA of node:       231.4617 deg
Eccentricity:    0.0012807
Arg of perigee:   098.0956 deg
Mean anomaly:     262.1699 deg
Mean motion:   14.24169155 rev/day
Decay rate:       -2.4e-07 rev/day^2
Epoch rev:           41660
Checksum:              298

Satellite: NOAA-18
Catalog number: 28654
Epoch time:      10181.55722412
Element set:    0389
Inclination:      098.9502 deg
RA of node:       127.7832 deg
Eccentricity:    0.0014753
Arg of perigee:   019.7202 deg
Mean anomaly:     340.4548 deg
Mean motion:   14.11367551 rev/day
Decay rate:       2.17e-06 rev/day^2
Epoch rev:           26332
Checksum:              295

Satellite: NOAA-19
Catalog number: 33591
Epoch time:      10181.54811956
Element set:    0586
Inclination:      098.7885 deg
RA of node:       123.3850 deg
Eccentricity:    0.0013091
Arg of perigee:   250.8245 deg
Mean anomaly:     109.1506 deg
Mean motion:   14.11063142 rev/day
Decay rate:       1.32e-06 rev/day^2
Epoch rev:           07179
Checksum:              292

/EX
SB KEPS @ AMSAT  $ORB10182.M
Orbital Elements  10182.MISC

HR AMSAT ORBITAL ELEMENTS FOR MANNED AND MISCELLANEOUS SATELLITES
FROM WA5QGD FORT WORTH,TX July 1, 2010
Send Subscribe/unsubscribe to KEPS at http://www.amsat.org/mailman/listinfo/keps
BID: ORB10182.M
TO ALL RADIO AMATEURS BT

Satellite: HUBBLE
Catalog number: 20580
Epoch time:      10182.34335461
Element set:     594
Inclination:      028.4682 deg
RA of node:       147.4498 deg
Eccentricity:    0.0002892
Arg of perigee:   358.8779 deg
Mean anomaly:     001.2267 deg
Mean motion:   15.00992347 rev/day
Decay rate:       2.34e-06 rev/day^2
Epoch rev:           90688
Checksum:              316

Satellite: ISS
Catalog number: 25544
Epoch time:      10183.01103237
Element set:     427
Inclination:      051.6465 deg
RA of node:       154.7287 deg
Eccentricity:    0.0010027
Arg of perigee:   032.7085 deg
Mean anomaly:     083.3744 deg
Mean motion:   15.72156097 rev/day
Decay rate:     1.1736e-04 rev/day^2
Epoch rev:           66580
Checksum:              281

Satellite: CO-58
Catalog number: 28895
Epoch time:      10181.20938373
Element set:    0621
Inclination:      098.0130 deg
RA of node:       065.2551 deg
Eccentricity:    0.0016843
Arg of perigee:   242.7994 deg
Mean anomaly:     117.1471 deg
Mean motion:   14.59905393 rev/day
Decay rate:       1.33e-06 rev/day^2
Epoch rev:           24888
Checksum:              321

Satellite: FALCON
Catalog number: 30776
Epoch time:      10181.82611546
Element set:     860
Inclination:      035.4348 deg
RA of node:       321.4855 deg
Eccentricity:    0.0001945
Arg of perigee:   321.3484 deg
Mean anomaly:     038.7092 deg
Mean motion:   15.03701208 rev/day
Decay rate:       5.32e-06 rev/day^2
Epoch rev:           18211
Checksum:              268

Satellite: MAST
Catalog number: 31126
Epoch time:      10181.64493234
Element set:     902
Inclination:      097.9360 deg
RA of node:       222.9615 deg
Eccentricity:    0.0094258
Arg of perigee:   183.5363 deg
Mean anomaly:     176.5137 deg
Mean motion:   14.53597999 rev/day
Decay rate:        5.3e-07 rev/day^2
Epoch rev:           17001
Checksum:              306

Satellite: CAPE1
Catalog number: 31130
Epoch time:      10181.50287584
Element set:     922
Inclination:      097.9355 deg
RA of node:       220.2105 deg
Eccentricity:    0.0102189
Arg of perigee:   191.8484 deg
Mean anomaly:     168.0368 deg
Mean motion:   14.52193616 rev/day
Decay rate:       2.39e-06 rev/day^2
Epoch rev:           16959
Checksum:              301

Satellite: COMPASS
Catalog number: 32787
Epoch time:      10181.20050385
Element set:    0713
Inclination:      097.8934 deg
RA of node:       245.7790 deg
Eccentricity:    0.0014709
Arg of perigee:   241.7957 deg
Mean anomaly:     118.1775 deg
Mean motion:   14.81896430 rev/day
Decay rate:       1.83e-06 rev/day^2
Epoch rev:           11742
Checksum:              312

Satellite: AAUSAT2
Catalog number: 32788
Epoch time:      10181.13478436
Element set:    0705
Inclination:      097.8939 deg
RA of node:       245.8463 deg
Eccentricity:    0.0014210
Arg of perigee:   243.1422 deg
Mean anomaly:     116.8401 deg
Mean motion:   14.82040580 rev/day
Decay rate:       2.54e-06 rev/day^2
Epoch rev:           11742
Checksum:              280

Satellite: DO-64
Catalog number: 32789
Epoch time:      10182.69512034
Element set:     722
Inclination:      097.8998 deg
RA of node:       247.8741 deg
Eccentricity:    0.0014558
Arg of perigee:   235.5215 deg
Mean anomaly:     124.4623 deg
Mean motion:   14.82195463 rev/day
Decay rate:       9.83e-06 rev/day^2
Epoch rev:           11765
Checksum:              336

Satellite: CO-66
Catalog number: 32791
Epoch time:      10182.71005432
Element set:     704
Inclination:      097.8953 deg
RA of node:       247.2808 deg
Eccentricity:    0.0014987
Arg of perigee:   235.5413 deg
Mean anomaly:     124.4883 deg
Mean motion:   14.81680787 rev/day
Decay rate:       3.43e-06 rev/day^2
Epoch rev:           66812
Checksum:              326

Satellite: RS-30
Catalog number: 32953
Epoch time:      10182.53693838
Element set:     831
Inclination:      082.5002 deg
RA of node:       020.7547 deg
Eccentricity:    0.0019931
Arg of perigee:   071.6172 deg
Mean anomaly:     288.7085 deg
Mean motion:   12.43005971 rev/day
Decay rate:        1.0e-07 rev/day^2
Epoch rev:            9552
Checksum:              286

